Location: Feigenhofen
(48.4939°N, 10.7793°E)
Time: 22:56:53
(UTC+00:00)

Cosmos 1980 - Pass Details

Date: 26 May 2022
Orbit: 840 x 846 km, 71.0° (Epoch: 24 June)

Event Time Altitude Azimuth Distance (km) Brightness Sun altitude
Exits shadow 00:20:32 34° 196° (SSW) 1,347 4.2 -18.8°
Maximum altitude 00:23:03 79° 116° (ESE) 862 3.7 -18.7°
Drops below altitude 10° 00:28:43 10° 30° (NNE) 2,467 7.3 -18.4°
Sets 00:31:10 0° 29° (NNE) 3,406 8.4 -18.3°
